Year,Month,Day,Hour,Minute,Value (Times are PST for temperature in C)
2010,03,22,00,00,8.20
2010,03,22,00,01,8.20
2010,03,22,00,02,8.20
2010,03,22,00,03,8.20
2010,03,22,00,04,8.20
2010,03,22,00,05,8.10
2010,03,22,00,06,8.10
2010,03,22,00,07,8.10
2010,03,22,00,08,8.10
2010,03,22,00,09,8.10
2010,03,22,00,10,8.10
2010,03,22,00,11,8.10
2010,03,22,00,12,8.10
2010,03,22,00,13,8.10
2010,03,22,00,14,8.10
2010,03,22,00,15,8.10
2010,03,22,00,16,8.10
2010,03,22,00,17,8.10
2010,03,22,00,18,8.10
2010,03,22,00,19,8.10
2010,03,22,00,20,8.00
2010,03,22,00,21,8.00
2010,03,22,00,22,8.00
2010,03,22,00,23,7.90
2010,03,22,00,24,7.90
2010,03,22,00,25,7.90
2010,03,22,00,26,7.90
2010,03,22,00,27,7.90
2010,03,22,00,28,7.90
2010,03,22,00,29,7.80
2010,03,22,00,30,7.80
2010,03,22,00,31,7.80
2010,03,22,00,32,7.80
2010,03,22,00,33,7.70
2010,03,22,00,34,7.70
2010,03,22,00,35,7.70
2010,03,22,00,36,7.70
2010,03,22,00,37,7.70
2010,03,22,00,38,7.70
2010,03,22,00,39,7.70
2010,03,22,00,40,7.70
2010,03,22,00,41,7.70
2010,03,22,00,42,7.70
2010,03,22,00,43,7.70
2010,03,22,00,44,7.70
2010,03,22,00,45,7.70
2010,03,22,00,46,7.70
2010,03,22,00,47,7.70
2010,03,22,00,48,7.70
2010,03,22,00,49,7.70
2010,03,22,00,50,7.70
2010,03,22,00,51,7.70
2010,03,22,00,52,7.70
2010,03,22,00,53,7.70
2010,03,22,00,54,7.70
2010,03,22,00,55,7.70
2010,03,22,00,56,7.70
2010,03,22,00,57,7.70
2010,03,22,00,58,7.60
2010,03,22,00,59,7.60
2010,03,22,01,00,7.60
2010,03,22,01,01,7.60
2010,03,22,01,02,7.60
2010,03,22,01,03,7.60
2010,03,22,01,04,7.70
2010,03,22,01,05,7.70
2010,03,22,01,06,7.70
2010,03,22,01,07,7.70
2010,03,22,01,08,7.70
2010,03,22,01,09,7.70
2010,03,22,01,10,7.80
2010,03,22,01,11,7.80
2010,03,22,01,12,7.80
2010,03,22,01,13,7.80
2010,03,22,01,14,7.80
2010,03,22,01,15,7.80
2010,03,22,01,16,7.70
2010,03,22,01,17,7.70
2010,03,22,01,18,7.70
2010,03,22,01,19,7.70
2010,03,22,01,20,7.70
2010,03,22,01,21,7.70
2010,03,22,01,22,7.70
2010,03,22,01,23,7.70
2010,03,22,01,24,7.70
2010,03,22,01,25,7.70
2010,03,22,01,26,7.70
2010,03,22,01,27,7.70
2010,03,22,01,28,7.70
2010,03,22,01,29,7.70
2010,03,22,01,30,7.60
2010,03,22,01,31,7.60
2010,03,22,01,32,7.60
2010,03,22,01,33,7.60
2010,03,22,01,34,7.60
2010,03,22,01,35,7.50
2010,03,22,01,36,7.60
2010,03,22,01,37,7.50
2010,03,22,01,38,7.50
2010,03,22,01,39,7.50
2010,03,22,01,40,7.40
2010,03,22,01,41,7.40
2010,03,22,01,42,7.30
2010,03,22,01,43,7.30
2010,03,22,01,44,7.20
2010,03,22,01,45,7.20
2010,03,22,01,46,7.20
2010,03,22,01,47,7.20
2010,03,22,01,48,7.10
2010,03,22,01,49,7.10
2010,03,22,01,50,7.00
2010,03,22,01,51,6.90
2010,03,22,01,52,6.90
2010,03,22,01,53,6.90
2010,03,22,01,54,6.90
2010,03,22,01,55,6.80
2010,03,22,01,56,6.80
2010,03,22,01,57,6.70
2010,03,22,01,58,6.70
2010,03,22,01,59,6.70
2010,03,22,02,00,6.70
2010,03,22,02,01,6.70
2010,03,22,02,02,6.70
2010,03,22,02,03,6.60
2010,03,22,02,04,6.50
2010,03,22,02,05,6.50
2010,03,22,02,06,6.40
2010,03,22,02,07,6.40
2010,03,22,02,08,6.40
2010,03,22,02,09,6.30
2010,03,22,02,10,6.20
2010,03,22,02,11,6.10
2010,03,22,02,12,6.10
2010,03,22,02,13,6.10
2010,03,22,02,14,6.00
2010,03,22,02,15,6.00
2010,03,22,02,16,6.00
2010,03,22,02,17,6.10
2010,03,22,02,18,6.10
2010,03,22,02,19,6.10
2010,03,22,02,20,6.10
2010,03,22,02,21,6.20
2010,03,22,02,22,6.20
2010,03,22,02,23,6.20
2010,03,22,02,24,6.20
2010,03,22,02,25,6.30
2010,03,22,02,26,6.30
2010,03,22,02,27,6.30
2010,03,22,02,28,6.30
2010,03,22,02,29,6.30
2010,03,22,02,30,6.40
2010,03,22,02,31,6.40
2010,03,22,02,32,6.30
2010,03,22,02,33,6.40
2010,03,22,02,34,6.40
2010,03,22,02,35,6.40
2010,03,22,02,36,6.50
2010,03,22,02,37,6.50
2010,03,22,02,38,6.60
2010,03,22,02,39,6.60
2010,03,22,02,40,6.70
2010,03,22,02,41,6.70
2010,03,22,02,42,6.70
2010,03,22,02,43,6.80
2010,03,22,02,44,6.80
2010,03,22,02,45,6.90
2010,03,22,02,46,6.90
2010,03,22,02,47,7.00
2010,03,22,02,48,7.10
2010,03,22,02,49,7.10
2010,03,22,02,50,7.10
2010,03,22,02,51,7.10
2010,03,22,02,52,7.10
2010,03,22,02,53,7.10
2010,03,22,02,54,7.00
2010,03,22,02,55,7.00
2010,03,22,02,56,6.90
2010,03,22,02,57,6.80
2010,03,22,02,58,6.80
2010,03,22,02,59,6.70
2010,03,22,03,00,6.50
2010,03,22,03,01,6.40
2010,03,22,03,02,6.30
2010,03,22,03,03,6.10
2010,03,22,03,04,6.00
2010,03,22,03,05,5.90
2010,03,22,03,06,5.80
2010,03,22,03,07,5.80
2010,03,22,03,08,5.80
2010,03,22,03,09,5.70
2010,03,22,03,10,5.70
2010,03,22,03,11,5.70
2010,03,22,03,12,5.70
2010,03,22,03,13,5.70
2010,03,22,03,14,5.70
2010,03,22,03,15,5.70
2010,03,22,03,16,5.70
2010,03,22,03,17,5.70
2010,03,22,03,18,5.70
2010,03,22,03,19,5.70
2010,03,22,03,20,5.70
2010,03,22,03,21,5.60
2010,03,22,03,22,5.70
2010,03,22,03,23,5.60
2010,03,22,03,24,5.60
2010,03,22,03,25,5.60
2010,03,22,03,26,5.60
2010,03,22,03,27,5.60
2010,03,22,03,28,5.60
2010,03,22,03,29,5.60
2010,03,22,03,30,5.60
2010,03,22,03,31,5.60
2010,03,22,03,32,5.60
2010,03,22,03,33,5.60
2010,03,22,03,34,5.50
2010,03,22,03,35,5.50
2010,03,22,03,36,5.50
2010,03,22,03,37,5.50
2010,03,22,03,38,5.50
2010,03,22,03,39,5.50
2010,03,22,03,40,5.50
2010,03,22,03,41,5.50
2010,03,22,03,42,5.50
2010,03,22,03,43,5.40
2010,03,22,03,44,5.40
2010,03,22,03,45,5.40
2010,03,22,03,46,5.30
2010,03,22,03,47,5.30
2010,03,22,03,48,5.30
2010,03,22,03,49,5.30
2010,03,22,03,50,5.30
2010,03,22,03,51,5.30
2010,03,22,03,52,5.30
2010,03,22,03,53,5.30
2010,03,22,03,54,5.30
2010,03,22,03,55,5.30
2010,03,22,03,56,5.30
2010,03,22,03,57,5.30
2010,03,22,03,58,5.40
2010,03,22,03,59,5.40
2010,03,22,04,00,5.40
2010,03,22,04,01,5.50
2010,03,22,04,02,5.50
2010,03,22,04,03,5.60
2010,03,22,04,04,5.70
2010,03,22,04,05,5.70
2010,03,22,04,06,5.70
2010,03,22,04,07,5.80
2010,03,22,04,08,5.80
2010,03,22,04,09,5.80
2010,03,22,04,10,5.70
2010,03,22,04,11,5.70
2010,03,22,04,12,5.60
2010,03,22,04,13,5.60
2010,03,22,04,14,5.50
2010,03,22,04,15,5.40
2010,03,22,04,16,5.30
2010,03,22,04,17,5.20
2010,03,22,04,18,5.20
2010,03,22,04,19,5.10
2010,03,22,04,20,5.10
2010,03,22,04,21,5.10
2010,03,22,04,22,5.10
2010,03,22,04,23,5.10
2010,03,22,04,24,5.00
2010,03,22,04,25,5.00
2010,03,22,04,26,4.90
2010,03,22,04,27,4.90
2010,03,22,04,28,4.90
2010,03,22,04,29,4.80
2010,03,22,04,30,4.80
2010,03,22,04,31,4.80
2010,03,22,04,32,4.70
2010,03,22,04,33,4.70
2010,03,22,04,34,4.70
2010,03,22,04,35,4.70
2010,03,22,04,36,4.70
2010,03,22,04,37,4.60
2010,03,22,04,38,4.60
2010,03,22,04,39,4.60
2010,03,22,04,40,4.60
2010,03,22,04,41,4.60
2010,03,22,04,42,4.60
2010,03,22,04,43,4.60
2010,03,22,04,44,4.60
2010,03,22,04,45,4.70
2010,03,22,04,46,4.70
2010,03,22,04,47,4.60
2010,03,22,04,48,4.60
2010,03,22,04,49,4.60
2010,03,22,04,50,4.60
2010,03,22,04,51,4.60
2010,03,22,04,52,4.60
2010,03,22,04,53,4.60
2010,03,22,04,54,4.60
2010,03,22,04,55,4.60
2010,03,22,04,56,4.60
2010,03,22,04,57,4.60
2010,03,22,04,58,4.50
2010,03,22,04,59,4.50
2010,03,22,05,00,4.50
2010,03,22,05,01,4.50
2010,03,22,05,02,4.50
2010,03,22,05,03,4.50
2010,03,22,05,04,4.50
2010,03,22,05,05,4.50
2010,03,22,05,06,4.50
2010,03,22,05,07,4.50
2010,03,22,05,08,4.60
2010,03,22,05,09,4.60
2010,03,22,05,10,4.60
2010,03,22,05,11,4.70
2010,03,22,05,12,4.70
2010,03,22,05,13,4.70
2010,03,22,05,14,4.70
2010,03,22,05,15,4.70
2010,03,22,05,16,4.70
2010,03,22,05,17,4.70
2010,03,22,05,18,4.60
2010,03,22,05,19,4.60
2010,03,22,05,20,4.50
2010,03,22,05,21,4.50
2010,03,22,05,22,4.50
2010,03,22,05,23,4.40
2010,03,22,05,24,4.40
2010,03,22,05,25,4.40
2010,03,22,05,26,4.40
2010,03,22,05,27,4.40
2010,03,22,05,28,4.30
2010,03,22,05,29,4.30
2010,03,22,05,30,4.20
2010,03,22,05,31,4.20
2010,03,22,05,32,4.10
2010,03,22,05,33,4.10
2010,03,22,05,34,4.10
2010,03,22,05,35,4.00
2010,03,22,05,36,4.00
2010,03,22,05,37,3.90
2010,03,22,05,38,3.90
2010,03,22,05,39,3.90
2010,03,22,05,40,3.80
2010,03,22,05,41,3.80
2010,03,22,05,42,3.80
2010,03,22,05,43,3.70
2010,03,22,05,44,3.70
2010,03,22,05,45,3.70
2010,03,22,05,46,3.70
2010,03,22,05,47,3.60
2010,03,22,05,48,3.60
2010,03,22,05,49,3.60
2010,03,22,05,50,3.60
2010,03,22,05,51,3.50
2010,03,22,05,52,3.50
2010,03,22,05,53,3.50
2010,03,22,05,54,3.50
2010,03,22,05,55,3.40
2010,03,22,05,56,3.40
2010,03,22,05,57,3.40
2010,03,22,05,58,3.40
2010,03,22,05,59,3.30
2010,03,22,06,00,3.30
2010,03,22,06,01,3.30
2010,03,22,06,02,3.30
2010,03,22,06,03,3.20
2010,03,22,06,04,3.10
2010,03,22,06,05,3.10
2010,03,22,06,06,3.00
2010,03,22,06,07,3.00
2010,03,22,06,08,2.90
2010,03,22,06,09,2.90
2010,03,22,06,10,2.90
2010,03,22,06,11,2.90
2010,03,22,06,12,2.80
2010,03,22,06,13,2.80
2010,03,22,06,14,2.80
2010,03,22,06,15,2.80
2010,03,22,06,16,2.80
2010,03,22,06,17,2.70
2010,03,22,06,18,2.70
2010,03,22,06,19,2.70
2010,03,22,06,20,2.70
2010,03,22,06,21,2.70
2010,03,22,06,22,2.70
2010,03,22,06,23,2.70
2010,03,22,06,24,2.70
2010,03,22,06,25,2.70
2010,03,22,06,26,2.70
2010,03,22,06,27,2.70
2010,03,22,06,28,2.60
2010,03,22,06,29,2.60
2010,03,22,06,30,2.60
2010,03,22,06,31,2.50
2010,03,22,06,32,2.50
2010,03,22,06,33,2.50
2010,03,22,06,34,2.50
2010,03,22,06,35,2.60
2010,03,22,06,36,2.60
2010,03,22,06,37,2.60
2010,03,22,06,38,2.50
2010,03,22,06,39,2.50
2010,03,22,06,40,2.40
2010,03,22,06,41,2.40
2010,03,22,06,42,2.40
2010,03,22,06,43,2.30
2010,03,22,06,44,2.30
2010,03,22,06,45,2.30
2010,03,22,06,46,2.30
2010,03,22,06,47,2.20
2010,03,22,06,48,2.20
2010,03,22,06,49,2.20
2010,03,22,06,50,2.20
2010,03,22,06,51,2.10
2010,03,22,06,52,2.10
2010,03,22,06,53,2.10
2010,03,22,06,54,2.10
2010,03,22,06,55,2.00
2010,03,22,06,56,2.10
2010,03,22,06,57,2.00
2010,03,22,06,58,2.00
2010,03,22,06,59,2.00
2010,03,22,07,00,2.00
2010,03,22,07,01,2.00
2010,03,22,07,02,2.00
2010,03,22,07,03,2.10
2010,03,22,07,04,2.10
2010,03,22,07,05,2.10
2010,03,22,07,06,2.10
2010,03,22,07,07,2.10
2010,03,22,07,08,2.10
2010,03,22,07,09,2.10
2010,03,22,07,10,2.10
2010,03,22,07,11,2.00
2010,03,22,07,12,2.00
2010,03,22,07,13,1.90
2010,03,22,07,14,1.90
2010,03,22,07,15,1.90
2010,03,22,07,16,1.80
2010,03,22,07,17,1.80
2010,03,22,07,18,1.80
2010,03,22,07,19,1.80
2010,03,22,07,20,1.80
2010,03,22,07,21,1.70
2010,03,22,07,22,1.70
2010,03,22,07,23,1.70
2010,03,22,07,24,1.70
2010,03,22,07,25,1.70
2010,03,22,07,26,1.70
2010,03,22,07,27,1.70
2010,03,22,07,28,1.70
2010,03,22,07,29,1.70
2010,03,22,07,30,1.70
2010,03,22,07,31,1.80
2010,03,22,07,32,1.80
2010,03,22,07,33,1.80
2010,03,22,07,34,1.90
2010,03,22,07,35,1.90
2010,03,22,07,36,2.00
2010,03,22,07,37,2.10
2010,03,22,07,38,2.20
2010,03,22,07,39,2.30
2010,03,22,07,40,2.40
2010,03,22,07,41,2.40
2010,03,22,07,42,2.40
2010,03,22,07,43,2.40
2010,03,22,07,44,2.40
2010,03,22,07,45,2.30
2010,03,22,07,46,2.30
2010,03,22,07,47,2.30
2010,03,22,07,48,2.30
2010,03,22,07,49,2.30
2010,03,22,07,50,2.40
2010,03,22,07,51,2.40
2010,03,22,07,52,2.50
2010,03,22,07,53,2.60
2010,03,22,07,54,2.60
2010,03,22,07,55,2.60
2010,03,22,07,56,2.50
2010,03,22,07,57,2.50
2010,03,22,07,58,2.40
2010,03,22,07,59,2.40
2010,03,22,08,00,2.40
2010,03,22,08,01,2.40
2010,03,22,08,02,2.40
2010,03,22,08,03,2.40
2010,03,22,08,04,2.50
2010,03,22,08,05,2.70
2010,03,22,08,06,2.80
2010,03,22,08,07,2.90
2010,03,22,08,08,3.00
2010,03,22,08,09,3.10
2010,03,22,08,10,3.20
2010,03,22,08,11,3.30
2010,03,22,08,12,3.30
2010,03,22,08,13,3.40
2010,03,22,08,14,3.50
2010,03,22,08,15,3.50
2010,03,22,08,16,3.60
2010,03,22,08,17,3.70
2010,03,22,08,18,3.80
2010,03,22,08,19,3.80
2010,03,22,08,20,3.80
2010,03,22,08,21,3.80
2010,03,22,08,22,3.90
2010,03,22,08,23,3.90
2010,03,22,08,24,4.00
2010,03,22,08,25,4.10
2010,03,22,08,26,4.10
2010,03,22,08,27,4.20
2010,03,22,08,28,4.30
2010,03,22,08,29,4.40
2010,03,22,08,30,4.50
2010,03,22,08,31,4.60
2010,03,22,08,32,4.80
2010,03,22,08,33,4.90
2010,03,22,08,34,5.10
2010,03,22,08,35,5.20
2010,03,22,08,36,5.30
2010,03,22,08,37,5.30
2010,03,22,08,38,5.50
2010,03,22,08,39,5.60
2010,03,22,08,40,5.70
2010,03,22,08,41,5.80
2010,03,22,08,42,5.90
2010,03,22,08,43,5.90
2010,03,22,08,44,6.00
2010,03,22,08,45,6.00
2010,03,22,08,46,6.00
2010,03,22,08,47,6.10
2010,03,22,08,48,6.10
2010,03,22,08,49,6.10
2010,03,22,08,50,6.10
2010,03,22,08,51,6.20
2010,03,22,08,52,6.20
2010,03,22,08,53,6.30
2010,03,22,08,54,6.30
2010,03,22,08,55,6.40
2010,03,22,08,56,6.40
2010,03,22,08,57,6.50
2010,03,22,08,58,6.50
2010,03,22,08,59,6.60
2010,03,22,09,00,6.60
2010,03,22,09,01,6.60
2010,03,22,09,02,6.60
2010,03,22,09,03,6.60
2010,03,22,09,04,6.70
2010,03,22,09,05,6.70
2010,03,22,09,06,6.70
2010,03,22,09,07,6.80
2010,03,22,09,08,6.90
2010,03,22,09,09,6.90
2010,03,22,09,10,7.00
2010,03,22,09,11,7.10
2010,03,22,09,12,7.20
2010,03,22,09,13,7.20
2010,03,22,09,14,7.20
2010,03,22,09,15,7.30
2010,03,22,09,16,7.30
2010,03,22,09,17,7.40
2010,03,22,09,18,7.40
2010,03,22,09,19,7.50
2010,03,22,09,20,7.60
2010,03,22,09,21,7.80
2010,03,22,09,22,7.90
2010,03,22,09,23,8.10
2010,03,22,09,24,8.20
2010,03,22,09,25,8.20
2010,03,22,09,26,8.20
2010,03,22,09,27,8.20
2010,03,22,09,29,8.20
2010,03,22,09,30,8.20
2010,03,22,09,31,8.20
2010,03,22,09,32,8.10
2010,03,22,09,33,8.00
2010,03,22,09,34,8.00
2010,03,22,09,35,7.90
2010,03,22,09,36,7.80
2010,03,22,09,37,7.80
2010,03,22,09,38,7.60
2010,03,22,09,39,7.60
2010,03,22,09,40,7.50
2010,03,22,09,41,7.50
2010,03,22,09,42,7.40
2010,03,22,09,43,7.40
2010,03,22,09,44,7.40
2010,03,22,09,45,7.40
2010,03,22,09,46,7.40
2010,03,22,09,47,7.40
2010,03,22,09,48,7.40
2010,03,22,09,49,7.40
2010,03,22,09,50,7.40
2010,03,22,09,51,7.50
2010,03,22,09,52,7.50
2010,03,22,09,53,7.60
2010,03,22,09,54,7.60
2010,03,22,09,55,7.60
2010,03,22,09,56,7.60
2010,03,22,09,57,7.60
2010,03,22,09,58,7.70
2010,03,22,09,59,7.70
2010,03,22,10,00,7.80
2010,03,22,10,01,7.80
2010,03,22,10,02,7.80
2010,03,22,10,03,7.90
2010,03,22,10,04,7.90
2010,03,22,10,05,7.90
2010,03,22,10,06,7.90
2010,03,22,10,07,7.90
2010,03,22,10,08,7.90
2010,03,22,10,09,7.90
2010,03,22,10,10,7.80
2010,03,22,10,11,7.80
2010,03,22,10,12,7.80
2010,03,22,10,13,7.80
2010,03,22,10,14,7.80
2010,03,22,10,15,7.80
2010,03,22,10,16,7.80
2010,03,22,10,17,7.80
2010,03,22,10,18,7.90
2010,03,22,10,19,7.90
2010,03,22,10,20,8.00
2010,03,22,10,21,8.00
2010,03,22,10,22,8.10
2010,03,22,10,23,8.10
2010,03,22,10,24,8.20
2010,03,22,10,25,8.20
2010,03,22,10,26,8.20
2010,03,22,10,27,8.20
2010,03,22,10,28,8.10
2010,03,22,10,29,8.10
2010,03,22,10,30,8.00
2010,03,22,10,31,7.90
2010,03,22,10,32,7.80
2010,03,22,10,33,7.80
2010,03,22,10,34,7.80
2010,03,22,10,35,7.80
2010,03,22,10,36,7.80
2010,03,22,10,37,7.80
2010,03,22,10,38,7.80
2010,03,22,10,39,7.80
2010,03,22,10,40,7.80
2010,03,22,10,41,7.80
2010,03,22,10,42,7.90
2010,03,22,10,43,7.90
2010,03,22,10,44,7.90
2010,03,22,10,45,7.90
2010,03,22,10,46,7.90
2010,03,22,10,47,7.80
2010,03,22,10,48,7.80
2010,03,22,10,49,7.80
2010,03,22,10,50,7.80
2010,03,22,10,51,7.90
2010,03,22,10,52,7.90
2010,03,22,10,53,7.90
2010,03,22,10,54,8.00
2010,03,22,10,55,8.10
2010,03,22,10,56,8.20
2010,03,22,10,57,8.20
2010,03,22,10,58,8.30
2010,03,22,10,59,8.30
2010,03,22,11,00,8.30
2010,03,22,11,01,8.30
2010,03,22,11,02,8.30
2010,03,22,11,03,8.30
2010,03,22,11,04,8.40
2010,03,22,11,06,8.60
2010,03,22,11,07,8.60
2010,03,22,11,08,8.70
2010,03,22,11,09,8.80
2010,03,22,11,10,8.90
2010,03,22,11,11,8.90
2010,03,22,11,12,8.90
2010,03,22,11,13,8.90
2010,03,22,11,14,8.80
2010,03,22,11,15,8.80
2010,03,22,11,16,8.80
2010,03,22,11,17,8.80
2010,03,22,11,18,8.80
2010,03,22,11,19,8.90
2010,03,22,11,20,8.90
2010,03,22,11,21,9.00
2010,03,22,11,22,9.10
2010,03,22,11,23,9.10
2010,03,22,11,24,9.10
2010,03,22,11,25,9.10
2010,03,22,11,26,9.00
2010,03,22,11,27,8.90
2010,03,22,11,28,8.90
2010,03,22,11,29,8.90
2010,03,22,11,30,8.80
2010,03,22,11,31,8.70
2010,03,22,11,32,8.70
2010,03,22,11,33,8.70
2010,03,22,11,34,8.60
2010,03,22,11,35,8.60
2010,03,22,11,36,8.60
2010,03,22,11,37,8.50
2010,03,22,11,38,8.50
2010,03,22,11,39,8.60
2010,03,22,11,40,8.60
2010,03,22,11,41,8.70
2010,03,22,11,42,8.70
2010,03,22,11,43,8.70
2010,03,22,11,44,8.70
2010,03,22,11,45,8.60
2010,03,22,11,46,8.50
2010,03,22,11,47,8.40
2010,03,22,11,48,8.40
2010,03,22,11,49,8.40
2010,03,22,11,50,8.30
2010,03,22,11,51,8.40
2010,03,22,11,52,8.40
2010,03,22,11,53,8.50
2010,03,22,11,54,8.60
2010,03,22,11,55,8.60
2010,03,22,11,56,8.70
2010,03,22,11,57,8.80
2010,03,22,11,58,8.80
2010,03,22,11,59,8.90
2010,03,22,12,00,8.90
2010,03,22,12,01,8.80
2010,03,22,12,02,8.80
2010,03,22,12,03,8.80
2010,03,22,12,04,8.90
2010,03,22,12,05,9.00
2010,03,22,12,06,9.00
2010,03,22,12,07,9.10
2010,03,22,12,08,9.10
2010,03,22,12,09,9.20
2010,03,22,12,10,9.20
2010,03,22,12,11,9.20
2010,03,22,12,12,9.20
2010,03,22,12,13,9.30
2010,03,22,12,14,9.30
2010,03,22,12,15,9.30
2010,03,22,12,16,9.30
2010,03,22,12,17,9.30
2010,03,22,12,18,9.30
2010,03,22,12,19,9.30
2010,03,22,12,20,9.30
2010,03,22,12,21,9.30
2010,03,22,12,22,9.30
2010,03,22,12,23,9.30
2010,03,22,12,24,9.30
2010,03,22,12,25,9.30
2010,03,22,12,26,9.30
2010,03,22,12,27,9.30
2010,03,22,12,28,9.30
2010,03,22,12,29,9.30
2010,03,22,12,30,9.20
2010,03,22,12,31,9.20
2010,03,22,12,32,9.20
2010,03,22,12,33,9.20
2010,03,22,12,34,9.20
2010,03,22,12,35,9.20
2010,03,22,12,36,9.30
2010,03,22,12,37,9.30
2010,03,22,12,38,9.30
2010,03,22,12,39,9.40
2010,03,22,12,40,9.40
2010,03,22,12,41,9.50
2010,03,22,12,42,9.60
2010,03,22,12,43,9.60
2010,03,22,12,44,9.70
2010,03,22,12,45,9.80
2010,03,22,12,46,9.90
2010,03,22,12,47,9.90
2010,03,22,12,48,9.90
2010,03,22,12,49,10.00
2010,03,22,12,50,10.00
2010,03,22,12,51,10.10
2010,03,22,12,52,10.10
2010,03,22,12,53,10.10
2010,03,22,12,54,10.20
2010,03,22,12,55,10.20
2010,03,22,12,56,10.20
2010,03,22,12,57,10.20
2010,03,22,12,58,10.20
2010,03,22,12,59,10.10
2010,03,22,13,00,10.00
2010,03,22,13,01,10.00
2010,03,22,13,02,9.90
2010,03,22,13,03,9.90
2010,03,22,13,04,9.90
2010,03,22,13,05,9.90
2010,03,22,13,06,9.90
2010,03,22,13,07,10.00
2010,03,22,13,08,10.10
2010,03,22,13,09,10.20
2010,03,22,13,10,10.20
2010,03,22,13,11,10.20
2010,03,22,13,12,10.20
2010,03,22,13,13,10.30
2010,03,22,13,14,10.30
2010,03,22,13,15,10.30
2010,03,22,13,16,10.30
2010,03,22,13,17,10.30
2010,03,22,13,18,10.20
2010,03,22,13,19,10.20
2010,03,22,13,20,10.10
2010,03,22,13,21,10.10
2010,03,22,13,22,10.10
2010,03,22,13,23,10.10
2010,03,22,13,24,10.00
2010,03,22,13,25,9.90
2010,03,22,13,26,9.90
2010,03,22,13,27,9.80
2010,03,22,13,28,9.70
2010,03,22,13,29,9.60
2010,03,22,13,30,9.50
2010,03,22,13,31,9.40
2010,03,22,13,32,9.40
2010,03,22,13,33,9.40
2010,03,22,13,34,9.40
2010,03,22,13,35,9.40
2010,03,22,13,36,9.40
2010,03,22,13,37,9.40
2010,03,22,13,38,9.50
2010,03,22,13,39,9.60
2010,03,22,13,40,9.60
2010,03,22,13,41,9.70
2010,03,22,13,42,9.80
2010,03,22,13,43,9.90
2010,03,22,13,44,10.00
2010,03,22,13,45,10.10
2010,03,22,13,46,10.10
2010,03,22,13,47,10.10
2010,03,22,13,48,10.10
2010,03,22,13,49,10.10
2010,03,22,13,50,10.20
2010,03,22,13,51,10.20
2010,03,22,13,52,10.20
2010,03,22,13,53,10.20
2010,03,22,13,54,10.20
2010,03,22,13,55,10.20
2010,03,22,13,56,10.30
2010,03,22,13,57,10.30
2010,03,22,13,58,10.30
2010,03,22,13,59,10.30
2010,03,22,14,00,10.30
2010,03,22,14,01,10.30
2010,03,22,14,02,10.30
2010,03,22,14,03,10.30
2010,03,22,14,04,10.30
2010,03,22,14,05,10.40
2010,03,22,14,06,10.40
2010,03,22,14,07,10.50
2010,03,22,14,08,10.50
2010,03,22,14,09,10.60
2010,03,22,14,10,10.70
2010,03,22,14,11,10.80
2010,03,22,14,12,10.80
2010,03,22,14,13,10.90
2010,03,22,14,14,10.90
2010,03,22,14,15,10.90
2010,03,22,14,16,10.90
2010,03,22,14,17,10.80
2010,03,22,14,18,10.70
2010,03,22,14,19,10.70
2010,03,22,14,20,10.70
2010,03,22,14,21,10.70
2010,03,22,14,22,10.70
2010,03,22,14,23,10.70
2010,03,22,14,24,10.70
2010,03,22,14,25,10.80
2010,03,22,14,26,10.80
2010,03,22,14,27,10.80
2010,03,22,14,28,10.80
2010,03,22,14,29,10.80
2010,03,22,14,30,10.80
2010,03,22,14,31,10.80
2010,03,22,14,32,10.80
2010,03,22,14,33,10.80
2010,03,22,14,34,10.80
2010,03,22,14,35,10.80
2010,03,22,14,36,10.80
2010,03,22,14,37,10.90
2010,03,22,14,38,10.90
2010,03,22,14,39,10.90
2010,03,22,14,40,11.00
2010,03,22,14,41,11.10
2010,03,22,14,42,11.10
2010,03,22,14,43,11.10
2010,03,22,14,44,11.00
2010,03,22,14,45,10.90
2010,03,22,14,46,10.80
2010,03,22,14,47,10.70
2010,03,22,14,48,10.60
2010,03,22,14,49,10.50
2010,03,22,14,50,10.40
2010,03,22,14,51,10.40
2010,03,22,14,52,10.40
2010,03,22,14,53,10.40
2010,03,22,14,54,10.30
2010,03,22,14,55,10.30
2010,03,22,14,56,10.30
2010,03,22,14,57,10.30
2010,03,22,14,58,10.30
2010,03,22,14,59,10.40
2010,03,22,15,00,10.50
2010,03,22,15,01,10.60
2010,03,22,15,02,10.60
2010,03,22,15,03,10.70
2010,03,22,15,04,10.70
2010,03,22,15,05,10.80
2010,03,22,15,06,10.80
2010,03,22,15,07,10.80
2010,03,22,15,08,10.80
2010,03,22,15,09,10.80
2010,03,22,15,10,10.80
2010,03,22,15,11,10.90
2010,03,22,15,12,10.90
2010,03,22,15,13,10.90
2010,03,22,15,14,10.90
2010,03,22,15,15,10.90
2010,03,22,15,16,10.80
2010,03,22,15,17,10.80
2010,03,22,15,18,10.70
2010,03,22,15,19,10.70
2010,03,22,15,20,10.60
2010,03,22,15,21,10.50
2010,03,22,15,22,10.40
2010,03,22,15,23,10.40
2010,03,22,15,24,10.40
2010,03,22,15,25,10.30
2010,03,22,15,26,10.30
2010,03,22,15,27,10.20
2010,03,22,15,28,10.20
2010,03,22,15,29,10.10
2010,03,22,15,30,10.10
2010,03,22,15,31,10.10
2010,03,22,15,32,10.00
2010,03,22,15,33,10.00
2010,03,22,15,34,10.10
2010,03,22,15,35,10.10
2010,03,22,15,36,10.10
2010,03,22,15,37,10.10
2010,03,22,15,38,10.10
2010,03,22,15,39,10.00
2010,03,22,15,40,10.00
2010,03,22,15,41,10.00
2010,03,22,15,42,10.00
2010,03,22,15,43,10.00
2010,03,22,15,44,10.00
2010,03,22,15,45,10.00
2010,03,22,15,46,10.10
2010,03,22,15,47,10.10
2010,03,22,15,48,10.10
2010,03,22,15,49,10.10
2010,03,22,15,50,10.10
2010,03,22,15,51,10.10
2010,03,22,15,52,10.10
2010,03,22,15,53,10.20
2010,03,22,15,54,10.20
2010,03,22,15,55,10.10
2010,03,22,15,56,10.10
2010,03,22,15,57,10.00
2010,03,22,15,58,10.00
2010,03,22,15,59,9.90
2010,03,22,16,00,9.90
2010,03,22,16,01,9.90
2010,03,22,16,02,9.90
2010,03,22,16,03,9.90
2010,03,22,16,04,9.90
2010,03,22,16,05,9.80
2010,03,22,16,06,9.80
2010,03,22,16,07,9.80
2010,03,22,16,08,9.80
2010,03,22,16,09,9.80
2010,03,22,16,10,9.80
2010,03,22,16,11,9.80
2010,03,22,16,12,9.90
2010,03,22,16,13,9.90
2010,03,22,16,14,9.90
2010,03,22,16,15,10.00
2010,03,22,16,16,10.00
2010,03,22,16,17,10.00
2010,03,22,16,18,10.10
2010,03,22,16,19,10.10
2010,03,22,16,20,10.10
2010,03,22,16,21,10.00
2010,03,22,16,22,10.00
2010,03,22,16,23,10.00
2010,03,22,16,24,10.00
2010,03,22,16,25,10.00
2010,03,22,16,26,10.00
2010,03,22,16,27,10.00
2010,03,22,16,28,10.00
2010,03,22,16,29,10.00
2010,03,22,16,30,10.00
2010,03,22,16,31,10.10
2010,03,22,16,32,10.10
2010,03,22,16,35,10.10
2010,03,22,16,36,10.10
2010,03,22,16,37,10.10
2010,03,22,16,38,10.10
2010,03,22,16,39,10.10
2010,03,22,16,40,10.10
2010,03,22,16,41,10.10
2010,03,22,16,42,10.10
2010,03,22,16,43,10.10
2010,03,22,16,44,10.20
2010,03,22,16,45,10.20
2010,03,22,16,46,10.20
2010,03,22,16,47,10.20
2010,03,22,16,48,10.20
2010,03,22,16,49,10.20
2010,03,22,16,50,10.30
2010,03,22,16,51,10.30
2010,03,22,16,52,10.40
2010,03,22,16,53,10.40
2010,03,22,16,54,10.40
2010,03,22,16,55,10.50
2010,03,22,16,56,10.50
2010,03,22,16,57,10.60
2010,03,22,16,58,10.60
2010,03,22,16,59,10.60
2010,03,22,17,00,10.70
2010,03,22,17,01,10.70
2010,03,22,17,02,10.80
2010,03,22,17,03,10.80
2010,03,22,17,04,10.90
2010,03,22,17,05,11.00
2010,03,22,17,06,11.00
2010,03,22,17,07,11.00
2010,03,22,17,08,11.10
2010,03,22,17,09,11.10
2010,03,22,17,10,11.10
2010,03,22,17,11,11.10
2010,03,22,17,12,11.10
2010,03,22,17,13,11.20
2010,03,22,17,14,11.20
2010,03,22,17,15,11.20
2010,03,22,17,16,11.20
2010,03,22,17,17,11.20
2010,03,22,17,18,11.20
2010,03,22,17,19,11.20
2010,03,22,17,20,11.20
2010,03,22,17,21,11.20
2010,03,22,17,22,11.20
2010,03,22,17,23,11.10
2010,03,22,17,24,11.10
2010,03,22,17,25,11.10
2010,03,22,17,26,11.10
2010,03,22,17,27,11.10
2010,03,22,17,28,11.10
2010,03,22,17,29,11.10
2010,03,22,17,30,11.10
2010,03,22,17,31,11.10
2010,03,22,17,32,11.10
2010,03,22,17,33,11.10
2010,03,22,17,34,11.10
2010,03,22,17,35,11.10
2010,03,22,17,36,11.10
2010,03,22,17,37,11.00
2010,03,22,17,38,11.00
2010,03,22,17,39,10.90
2010,03,22,17,40,10.90
2010,03,22,17,41,10.80
2010,03,22,17,42,10.80
2010,03,22,17,43,10.70
2010,03,22,17,44,10.60
2010,03,22,17,45,10.60
2010,03,22,17,46,10.60
2010,03,22,17,47,10.50
2010,03,22,17,48,10.50
2010,03,22,17,49,10.40
2010,03,22,17,50,10.40
2010,03,22,17,51,10.40
2010,03,22,17,52,10.30
2010,03,22,17,53,10.30
2010,03,22,17,54,10.30
2010,03,22,17,55,10.20
2010,03,22,17,56,10.20
2010,03,22,17,57,10.20
2010,03,22,17,58,10.20